Time,TemperatureF,DewpointF,PressureIn,WindDirection,WindDirectionDegrees,WindSpeedMPH,WindSpeedGustMPH,Humidity,HourlyPrecipIn,Conditions,Clouds,dailyrainin,SoftwareType,DateUTC
2013-04-27 00:14:00,50.1,36.0,30.27,WNW,288,0.0,-999.0,59,-99.99,,,0.00,weatherlink.com 1.10,2013-04-27 04:14:00,
2013-04-27 00:29:00,50.1,37.0,30.26,WNW,288,0.0,-999.0,62,-99.99,,,0.00,weatherlink.com 1.10,2013-04-27 04:29:00,
2013-04-27 00:44:00,50.1,37.0,30.25,WNW,288,0.0,-999.0,62,-99.99,,,0.00,weatherlink.com 1.10,2013-04-27 04:44:00,
2013-04-27 00:59:00,50.2,37.0,30.25,SSW,206,0.0,-999.0,60,-99.99,,,0.00,weatherlink.com 1.10,2013-04-27 04:59:00,
2013-04-27 01:14:00,51.7,34.0,30.26,WSW,250,0.0,-999.0,51,-99.99,,,0.00,weatherlink.com 1.10,2013-04-27 05:14:00,
2013-04-27 01:29:00,52.5,35.0,30.25,South,186,0.0,-999.0,52,-99.99,,,0.00,weatherlink.com 1.10,2013-04-27 05:29:00,
2013-04-27 01:44:00,52.0,37.0,30.24,SSW,208,2.0,-999.0,56,-99.99,,,0.00,weatherlink.com 1.10,2013-04-27 05:44:00,
2013-04-27 01:59:00,51.9,37.0,30.24,SSW,206,0.0,-999.0,58,-99.99,,,0.00,weatherlink.com 1.10,2013-04-27 05:59:00,
2013-04-27 02:14:00,51.7,38.0,30.24,SSW,206,0.0,-999.0,59,-99.99,,,0.00,weatherlink.com 1.10,2013-04-27 06:14:00,
2013-04-27 02:29:00,51.1,37.0,30.23,SSW,206,0.0,-999.0,58,-99.99,,,0.00,weatherlink.com 1.10,2013-04-27 06:29:00,
2013-04-27 02:44:00,50.7,37.0,30.22,WSW,248,0.0,-999.0,60,-99.99,,,0.00,weatherlink.com 1.10,2013-04-27 06:44:00,
2013-04-27 02:59:00,50.4,38.0,30.21,WSW,248,0.0,-999.0,62,-99.99,,,0.00,weatherlink.com 1.10,2013-04-27 06:59:00,
2013-04-27 03:14:00,50.5,38.0,30.21,WSW,248,0.0,-999.0,62,-99.99,,,0.00,weatherlink.com 1.10,2013-04-27 07:14:00,
2013-04-27 03:29:00,50.5,39.0,30.21,WSW,248,0.0,-999.0,64,-99.99,,,0.00,weatherlink.com 1.10,2013-04-27 07:29:00,
2013-04-27 03:44:00,50.1,39.0,30.22,WSW,248,0.0,-999.0,66,-99.99,,,0.00,weatherlink.com 1.10,2013-04-27 07:44:00,
2013-04-27 03:59:00,49.6,39.0,30.21,WSW,248,0.0,-999.0,68,-99.99,,,0.00,weatherlink.com 1.10,2013-04-27 07:59:00,
2013-04-27 04:14:00,49.4,40.0,30.22,WSW,248,0.0,-999.0,70,-99.99,,,0.00,weatherlink.com 1.10,2013-04-27 08:14:00,
2013-04-27 04:29:00,49.1,40.0,30.22,WSW,248,0.0,-999.0,70,-99.99,,,0.00,weatherlink.com 1.10,2013-04-27 08:29:00,
2013-04-27 04:44:00,48.9,39.0,30.22,WSW,248,0.0,-999.0,68,-99.99,,,0.00,weatherlink.com 1.10,2013-04-27 08:44:00,
2013-04-27 04:59:00,48.9,40.0,30.22,WSW,248,0.0,-999.0,72,-99.99,,,0.00,weatherlink.com 1.10,2013-04-27 08:59:00,
2013-04-27 05:14:00,48.9,40.0,30.21,WSW,248,0.0,-999.0,72,-99.99,,,0.00,weatherlink.com 1.10,2013-04-27 09:14:00,
2013-04-27 05:29:00,48.9,41.0,30.22,WSW,248,0.0,-999.0,75,-99.99,,,0.00,weatherlink.com 1.10,2013-04-27 09:29:00,
2013-04-27 05:44:00,48.8,41.0,30.23,WSW,248,0.0,-999.0,74,-99.99,,,0.00,weatherlink.com 1.10,2013-04-27 09:44:00,
2013-04-27 05:59:00,48.8,41.0,30.23,WSW,248,0.0,-999.0,74,-99.99,,,0.00,weatherlink.com 1.10,2013-04-27 09:59:00,
2013-04-27 06:14:00,48.8,40.0,30.23,WSW,248,0.0,-999.0,73,-99.99,,,0.00,weatherlink.com 1.10,2013-04-27 10:14:00,
2013-04-27 06:29:00,48.8,40.0,30.25,WSW,248,0.0,-999.0,73,-99.99,,,0.00,weatherlink.com 1.10,2013-04-27 10:29:00,
2013-04-27 06:44:00,48.8,43.0,30.25,WSW,248,0.0,-999.0,81,-99.99,,,0.00,weatherlink.com 1.10,2013-04-27 10:44:00,
2013-04-27 06:59:00,48.0,44.0,30.25,WSW,248,0.0,-999.0,85,-99.99,,,0.00,weatherlink.com 1.10,2013-04-27 10:59:00,
2013-04-27 07:14:00,47.9,45.0,30.24,WSW,248,0.0,-999.0,88,-99.99,,,0.00,weatherlink.com 1.10,2013-04-27 11:14:00,
2013-04-27 07:29:00,47.7,44.0,30.25,WSW,248,0.0,-999.0,88,-99.99,,,0.00,weatherlink.com 1.10,2013-04-27 11:29:00,
2013-04-27 07:44:00,47.7,44.0,30.26,WSW,248,0.0,-999.0,87,-99.99,,,0.00,weatherlink.com 1.10,2013-04-27 11:44:00,
2013-04-27 07:59:00,48.2,45.0,30.27,WSW,248,0.0,-999.0,87,-99.99,,,0.00,weatherlink.com 1.10,2013-04-27 11:59:00,
2013-04-27 08:14:00,48.3,45.0,30.27,WSW,248,0.0,-999.0,87,-99.99,,,0.00,weatherlink.com 1.10,2013-04-27 12:14:00,
2013-04-27 08:29:00,48.3,43.0,30.27,WSW,248,0.0,-999.0,83,-99.99,,,0.00,weatherlink.com 1.10,2013-04-27 12:29:00,
2013-04-27 08:44:00,48.9,45.0,30.27,WSW,248,0.0,-999.0,85,-99.99,,,0.00,weatherlink.com 1.10,2013-04-27 12:44:00,
2013-04-27 08:59:00,49.8,43.0,30.26,WSW,248,0.0,-999.0,78,-99.99,,,0.00,weatherlink.com 1.10,2013-04-27 12:59:00,
2013-04-27 09:14:00,51.0,44.0,30.26,WSW,248,0.0,-999.0,77,-99.99,,,0.00,weatherlink.com 1.10,2013-04-27 13:14:00,
2013-04-27 09:29:00,52.2,43.0,30.25,NNW,328,0.0,-999.0,72,-99.99,,,0.00,weatherlink.com 1.10,2013-04-27 13:29:00,
2013-04-27 09:44:00,53.2,44.0,30.25,North,0,1.0,-999.0,70,-99.99,,,0.00,weatherlink.com 1.10,2013-04-27 13:44:00,
2013-04-27 09:59:00,53.5,44.0,30.24,NNE,32,0.0,-999.0,70,-99.99,,,0.00,weatherlink.com 1.10,2013-04-27 13:59:00,
2013-04-27 10:14:00,53.9,43.0,30.25,North,350,0.0,-999.0,68,-99.99,,,0.00,weatherlink.com 1.10,2013-04-27 14:14:00,
2013-04-27 10:29:00,54.2,44.0,30.25,North,354,0.0,-999.0,68,-99.99,,,0.00,weatherlink.com 1.10,2013-04-27 14:29:00,
2013-04-27 10:44:00,54.7,44.0,30.25,North,359,0.0,-999.0,68,-99.99,,,0.00,weatherlink.com 1.10,2013-04-27 14:44:00,
2013-04-27 10:59:00,54.4,44.0,30.25,North,0,0.0,-999.0,68,-99.99,,,0.00,weatherlink.com 1.10,2013-04-27 14:59:00,
2013-04-27 11:14:00,54.2,44.0,30.25,North,359,0.0,-999.0,69,-99.99,,,0.00,weatherlink.com 1.10,2013-04-27 15:14:00,
2013-04-27 11:29:00,54.5,44.0,30.25,North,0,0.0,-999.0,67,-99.99,,,0.00,weatherlink.com 1.10,2013-04-27 15:29:00,
2013-04-27 11:44:00,54.4,44.0,30.25,North,0,0.0,-999.0,67,-99.99,,,0.00,weatherlink.com 1.10,2013-04-27 15:44:00,
2013-04-27 11:59:00,54.2,43.0,30.25,North,6,0.0,-999.0,66,-99.99,,,0.00,weatherlink.com 1.10,2013-04-27 15:59:00,
2013-04-27 12:14:00,54.7,45.0,30.25,North,349,1.0,-999.0,69,-99.99,,,0.00,weatherlink.com 1.10,2013-04-27 16:14:00,
2013-04-27 12:29:00,55.9,45.0,30.23,North,0,1.0,-999.0,66,-99.99,,,0.00,weatherlink.com 1.10,2013-04-27 16:29:00,
2013-04-27 12:44:00,57.0,45.0,30.22,NNW,339,2.0,-999.0,64,-99.99,,,0.00,weatherlink.com 1.10,2013-04-27 16:44:00,
2013-04-27 13:00:00,58.3,45.0,30.21,NNW,337,0.0,-999.0,62,-99.99,,,0.00,weatherlink.com 1.10,2013-04-27 17:00:00,
2013-04-27 13:14:00,57.3,45.0,30.22,NW,323,0.0,-999.0,63,-99.99,,,0.00,weatherlink.com 1.10,2013-04-27 17:14:00,
2013-04-27 13:30:00,56.9,45.0,30.22,East,85,0.0,-999.0,65,-99.99,,,0.00,weatherlink.com 1.10,2013-04-27 17:30:00,
2013-04-27 13:45:00,56.2,45.0,30.22,NNE,24,0.0,-999.0,66,-99.99,,,0.01,weatherlink.com 1.10,2013-04-27 17:45:00,
2013-04-27 14:00:00,55.1,44.0,30.23,NNE,24,0.0,-999.0,67,-99.99,,,0.01,weatherlink.com 1.10,2013-04-27 18:00:00,
2013-04-27 14:15:00,54.8,44.0,30.23,ENE,64,0.0,-999.0,68,-99.99,,,0.01,weatherlink.com 1.10,2013-04-27 18:15:00,
2013-04-27 14:30:00,54.5,46.0,30.23,ENE,64,0.0,-999.0,72,-99.99,,,0.01,weatherlink.com 1.10,2013-04-27 18:30:00,
2013-04-27 14:45:00,54.1,47.0,30.24,ENE,64,0.0,-999.0,77,-99.99,,,0.01,weatherlink.com 1.10,2013-04-27 18:45:00,
2013-04-27 15:00:00,53.6,47.0,30.23,East,100,0.0,-999.0,78,-99.99,,,0.01,weatherlink.com 1.10,2013-04-27 19:00:00,
2013-04-27 15:15:00,52.9,48.0,30.23,East,100,0.0,-999.0,83,-99.99,,,0.01,weatherlink.com 1.10,2013-04-27 19:15:00,
2013-04-27 15:30:00,52.9,48.0,30.23,East,100,0.0,-999.0,83,-99.99,,,0.01,weatherlink.com 1.10,2013-04-27 19:30:00,
2013-04-27 15:45:00,52.9,49.0,30.22,East,100,0.0,-999.0,87,-99.99,,,0.01,weatherlink.com 1.10,2013-04-27 19:45:00,
2013-04-27 16:00:00,52.6,49.0,30.22,East,100,1.0,-999.0,87,-99.99,,,0.01,weatherlink.com 1.10,2013-04-27 20:00:00,
2013-04-27 16:15:00,52.2,49.0,30.23,East,100,0.0,-999.0,88,-99.99,,,0.01,weatherlink.com 1.10,2013-04-27 20:15:00,
2013-04-27 16:30:00,51.4,48.0,30.23,East,100,0.0,-999.0,88,-99.99,,,0.01,weatherlink.com 1.10,2013-04-27 20:30:00,
2013-04-27 16:45:00,51.4,49.0,30.23,East,100,0.0,-999.0,90,-99.99,,,0.01,weatherlink.com 1.10,2013-04-27 20:45:00,
2013-04-27 17:00:00,51.3,49.0,30.22,NE,34,0.0,-999.0,90,-99.99,,,0.01,weatherlink.com 1.10,2013-04-27 21:00:00,
2013-04-27 17:15:00,51.0,49.0,30.21,WSW,247,0.0,-999.0,92,-99.99,,,0.01,weatherlink.com 1.10,2013-04-27 21:15:00,
2013-04-27 17:30:00,51.0,49.0,30.18,NW,305,0.0,-999.0,94,-99.99,,,0.01,weatherlink.com 1.10,2013-04-27 21:30:00,
2013-04-27 17:45:00,50.8,49.0,30.18,NW,316,0.0,-999.0,94,-99.99,,,0.01,weatherlink.com 1.10,2013-04-27 21:45:00,
2013-04-27 18:00:00,50.2,48.0,30.20,SW,234,0.0,-999.0,93,-99.99,,,0.01,weatherlink.com 1.10,2013-04-27 22:00:00,
2013-04-27 18:15:00,49.8,48.0,30.20,NW,313,0.0,-999.0,94,-99.99,,,0.01,weatherlink.com 1.10,2013-04-27 22:15:00,
2013-04-27 18:30:00,49.5,48.0,30.21,NNW,328,0.0,-999.0,94,-99.99,,,0.01,weatherlink.com 1.10,2013-04-27 22:30:00,
2013-04-27 18:45:00,49.2,48.0,30.21,NNW,333,0.0,-999.0,95,-99.99,,,0.01,weatherlink.com 1.10,2013-04-27 22:45:00,
2013-04-27 19:00:00,49.2,48.0,30.21,NNW,333,0.0,-999.0,96,-99.99,,,0.01,weatherlink.com 1.10,2013-04-27 23:00:00,
2013-04-27 19:15:00,48.9,48.0,30.21,NW,308,0.0,-999.0,97,-99.99,,,0.01,weatherlink.com 1.10,2013-04-27 23:15:00,
2013-04-27 19:30:00,48.6,48.0,30.20,WSW,253,0.0,-999.0,98,-99.99,,,0.01,weatherlink.com 1.10,2013-04-27 23:30:00,
2013-04-27 19:45:00,48.5,48.0,30.20,SW,230,0.0,-999.0,98,-99.99,,,0.01,weatherlink.com 1.10,2013-04-27 23:45:00,
2013-04-27 20:00:00,48.6,48.0,30.20,SW,230,0.0,-999.0,99,-99.99,,,0.01,weatherlink.com 1.10,2013-04-28 00:00:00,
2013-04-27 20:15:00,48.5,48.0,30.20,SW,232,0.0,-999.0,99,-99.99,,,0.01,weatherlink.com 1.10,2013-04-28 00:15:00,
2013-04-27 20:30:00,48.5,48.0,30.18,SW,232,0.0,-999.0,99,-99.99,,,0.01,weatherlink.com 1.10,2013-04-28 00:30:00,
2013-04-27 20:45:00,48.3,48.0,30.18,SW,232,0.0,-999.0,99,-99.99,,,0.01,weatherlink.com 1.10,2013-04-28 00:45:00,
2013-04-27 21:00:00,48.3,48.0,30.19,North,1,0.0,-999.0,100,-99.99,,,0.01,weatherlink.com 1.10,2013-04-28 01:00:00,
2013-04-27 21:15:00,48.2,48.0,30.18,SW,232,0.0,-999.0,100,-99.99,,,0.01,weatherlink.com 1.10,2013-04-28 01:15:00,
2013-04-27 21:30:00,48.0,48.0,30.17,NW,325,0.0,-999.0,100,-99.99,,,0.01,weatherlink.com 1.10,2013-04-28 01:30:00,
2013-04-27 21:45:00,47.9,48.0,30.17,NW,325,0.0,-999.0,100,-99.99,,,0.01,weatherlink.com 1.10,2013-04-28 01:45:00,
2013-04-27 22:00:00,47.6,48.0,30.18,North,359,0.0,-999.0,100,-99.99,,,0.01,weatherlink.com 1.10,2013-04-28 02:00:00,
2013-04-27 22:15:00,47.6,48.0,30.18,SW,233,0.0,-999.0,100,-99.99,,,0.01,weatherlink.com 1.10,2013-04-28 02:15:00,
2013-04-27 22:30:00,47.6,48.0,30.18,SSE,157,0.0,-999.0,100,-99.99,,,0.01,weatherlink.com 1.10,2013-04-28 02:30:00,
2013-04-27 22:45:00,47.4,47.0,30.18,North,0,0.0,-999.0,100,-99.99,,,0.01,weatherlink.com 1.10,2013-04-28 02:45:00,
2013-04-27 23:00:00,47.6,48.0,30.17,ESE,114,0.0,-999.0,100,-99.99,,,0.01,weatherlink.com 1.10,2013-04-28 03:00:00,
2013-04-27 23:15:00,47.3,47.0,30.18,NNW,336,0.0,-999.0,100,-99.99,,,0.01,weatherlink.com 1.10,2013-04-28 03:15:00,
2013-04-27 23:30:00,47.3,47.0,30.17,SSE,150,0.0,-999.0,100,-99.99,,,0.01,weatherlink.com 1.10,2013-04-28 03:30:00,
2013-04-27 23:45:00,47.3,47.0,30.16,NNW,339,0.0,-999.0,100,-99.99,,,0.01,weatherlink.com 1.10,2013-04-28 03:45:00,